DIAMANT R/B, 1805

Orbit data source: Space-Track

DIAMANT R/B, 1805 is space debris in LEO originally from a launch on Fri, 26 Nov 1965 UTC launched from the Hamma Guira Space Track Range (HGSTR). Debris objects in space refer to the collection of defunct objects orbiting the Earth. Examples of debris include non-operational satellites, rocket bodies, and fragments generated from explosions, collisions, or faulty payload assembly.

Loading next visibility...
Identifier
1805, 1965-096B
Orbit
LEO
Country
Flag of FRFR
Related business
Manufacturer
Sud
Mission
Spacecraft
Bus & Motor
RUBIS, Unknown motor
Mass
65 kg wet, 65 kg dry
Launch date (UTC)
1965-11-26 (60 years ago)
Launch vehicle
Unknown
Launch site
Hamma Guira Space Track Range (HGSTR)
Object type
Payload
Rocket body
Debris
Shape & HBR
Unknown
Radar Cross Section
Large (>1 m²)

Expand to show TLE details & history
Last TLE update: 15 hours ago

TLE from 15 hours ago
0 DIAMANT R/B
1 01805U 65096B   25348.94256671  .00001666  00000-0  34713-3 0  9992
2 01805  34.2442 225.6976 0584546 140.0889 224.4280 13.87467366979103
Epoch: 2025-12-14T22:37Z
TLE epoch observation values (Epoch: 2025-12-14T22:37:17.763Z)
Latitude
-0.00002°
Longitude
162.52531°
Altitude
1,253.251 km
Speed
7.073 km/s
True Right ascension
15h 02m 47s
True Declination
0° 00' 00"
Sunlit
Object was in daylight at epoch
Visualization orbit readout
Latitude
Unknown
Longitude
Unknown
Altitude
Unknown
Speed
Unknown
Apparent Right ascension
Unknown
Apparent Declination
Unknown
Sunlit
N/A
Visualization observer readout
Local Sidereal Time
12:43:03
Azimuth
Unknown
Elevation
Unknown
Doppler factor
Unknown
Orbital elements
Apogee altitude
1,368.522 km
Perigee altitude
512.882 km
Semi-major axis
7,318.839 km
Eccentricity
0.05845
Inclination
34.2442°
RAAN
225.6976°
Arg. of periapsis
140.0889°
True anomaly
219.97645°
Mean anomaly
224.428°
Eccentric anomaly
222.17917°
Mean motion
3.46641 °/min
Orbital period
103.85 mins
BSTAR
0.00034713
Loading maneuver chart data...
Computing Atmospheric mass density...
Loading historical data...
Loading historical data...
Loading historical data...
Loading historical data...
Loading historical data...
Loading historical data...
Loading historical data...
Other satellites on launch #96 in the year 1965 (1965-11-26 UTC)

Documentation

Showing up to 5 results
|